Terug naar catalogus

FENGYUN 1C DEB

ActiefSSO
NORAD 29960·DEBRIS·🇨🇳 China

Gelanceerd May 10, 1999 vanaf Taiyuan Satellite Launch Center

Loading…

Volgende Passages (komende 24 uur)

TLE

VersSource: Space-Track

Epoch: Sep 13, 2026, 22:27 UTC

1 29960U 99025KJ  26256.93593868  .00000388  00000-0  20688-3 0  9999
2 29960  98.6406 239.2226 0090407 215.0161 171.3506 14.16819680 13464

Volg FENGYUN 1C DEB in realtime met AllMySat

Download on the App Store